Regional Weather Roundup
Issued by NWS Portland, ME

Current Version | Previous Version | Text Only | Print | Product List | Glossary Off
Versions: 1 2 3 4 5 6 7 8 9 10 11 12 13 14 15 16 17 18 19 20 21 22 23 24 25 26 27 28 29 30 31 32 33 34 35 36 37 38 39 40 41 42 43 44 45 46 47 48 49 50
000 ASUS41 KGYX 281110 RWRGYX WEATHER ROUNDUP FOR MAINE AND NEW HAMPSHIRE NATIONAL WEATHER SERVICE GRAY ME 700 AM EDT THU MAY 28 2020 MEZ002-005-006-010-012-015-018-020-021-024-026-027-029-281200- MAINE CITY SKY/WX TMP DP RH WIND PRES REMARKS PORTLAND PTSUNNY 65 61 87 S7 30.14S SANFORD MOSUNNY 66 63 90 SW10 30.16S BAR HARBOR FOG 56 56 100 SW13 30.16S VSB 1/4 WISCASSET PTSUNNY 63 60 90 S6 30.15S ROCKLAND CLOUDY 59 58 96 SW12G18 30.16R FRYEBURG PTSUNNY 67 62 84 CALM 30.13R LEWISTONAUBURN PTSUNNY 65 63 93 S5 30.13S AUGUSTA CLOUDY 62 60 93 S5 30.13S WATERVILLE CLOUDY 62 60 93 VRB3 30.10S BANGOR PTSUNNY 61 58 90 S10 30.12S GREENVILLE N/A 64 60 87 SE3 30.10S MILLINOCKET MOSUNNY 63 58 83 CALM 30.10R HOULTON PTSUNNY 63 59 87 SW8 30.07R PRESQUE ISLE CLOUDY 62 61 96 S7 30.06S FRENCHVILLE PTSUNNY 66 63 90 S7 30.02F CARIBOU CLOUDY 64 61 90 S7 30.03S $$ NHZ002-005-008-009-011-012-014-281200- NEW HAMPSHIRE CITY SKY/WX TMP DP RH WIND PRES REMARKS PORTSMOUTH PTSUNNY 67 62 85 SW10 30.15S ROCHESTER PTSUNNY 66 61 84 CALM 30.16R NASHUA MOSUNNY 66 65 96 VRB3 30.19S MANCHESTER PTSUNNY 68 62 81 S8 30.17R CONCORD MOSUNNY 65 61 87 S6 30.17R LACONIA MOSUNNY 67 63 87 SW7 30.16R PLYMOUTH FAIR 61 60 96 CALM 30.15F BERLIN PTSUNNY 63 59 87 CALM 30.14S WHITEFIELD PTSUNNY 61 58 90 CALM 30.15S JAFFREY CLOUDY 65 61 87 SW7 30.21S KEENE CLOUDY 66 63 90 S5 30.20S LEBANON PTSUNNY 68 62 81 S5 30.16R MT WASHINGTON MOSUNNY 54 52 94 W16 N/A $$ VTZ005-007-008-281200- VERMONT CITY SKY/WX TMP DP RH WIND PRES REMARKS ST JOHNSBURY N/A 67 62 84 MISG 30.12S MONTPELIER CLOUDY 66 62 87 VRB3 30.18R BURLINGTON PTSUNNY 72 62 71 S13 30.11R $$ MAZ007-012-024-CTZ003-RIZ002-NYZ038-NYZ072-281200- SOUTHERN NEW ENGLAND AND NY CITY SKY/WX TMP DP RH WIND PRES REMARKS BOSTON PTSUNNY 67 62 84 SW13 30.21R WORCESTER CLOUDY 64 61 90 SW12 30.23R NANTUCKET MOSUNNY 60 58 92 S12 30.26S PROVIDENCE CLOUDY 65 64 97 S7 30.23S HARTFORD PTSUNNY 65 63 93 SE5 30.21R ALBANY PTSUNNY 69 62 78 S8 30.17S NEW YORK CITY CLOUDY 66 63 90 S8 30.20S FOG $$ ANZ081-ANZ082-ANZ150-NHZ014-MEZ023>029-281200- COASTAL MARINE OBSERVATIONS STATION/POSITION TIME TEMP WIND PRES WAVE AIR SEA DIR/SP/G HT/PER (UTC) (F) (DEG/KT/KT) (MB) (FT/S) MOUNT DESERT ROC 1100 190/ 20/ 22 1021.4S ISLE OF SHOALS 1100 62 220/ 19/ 20 1021.3R JEFFREYS LEDGE 1008 52 N/A 3/ 8 GEORGES BANK BUO 1050 47 1027.8R 3/ 6 $$ .............KEY.............. WCI - WIND CHILL TC - TEMPERATURE IN CELSIUS VSB - VISIBILITY IN MILES HX - HEAT INDEX FAIR- INDICATES FEW OR NO CLOUDS BELOW 12,000 FT, WITH NO SIGNIFICANT WEATHER AND/OR OBSTRUCTIONS TO VISIBILITY.

USA.gov is the U.S. government's official web portal to all federal, state and local government web resources and services.